Погода в Элисте

Поиск расширенной информации на нашем сайте:

Полезная информация:

Новости сайта



02.01.2020
Опубликован Долгосрочный прогноз погоды по городам России и ближнего зарубежья на январь 2020 года.
Карты: Прогноз на январь и февраль 2020 года, Сравнение прогнозируемой аномалии приземной температуры воздуха на январь 2020 года по разным моделям.




Погода в Элисте - сегодня

Время (UTC), дата Ветер
(°,м/с) 
Видим.   Явления Облачность Т
(°С)
Тd
(°С)
f(%) Тe
(°С)
Pmin
(гПа)
dP
(гПа)
Po
(мм)
O2
(г/м3)
Тmin Tmax R s Состояние
почвы
15 18.10.20 290 (З) 4{13}  20000 м    8/0 средняя, верхняя 
[Ac As|Ci]
+25.5 +2.1 22 +26  1008  -0.2  739  272    +29.3       
18 18.10.20 190 (Ю) 10 км    ясно 
+15 +7.1 59 +15  1015.3  0.6  744  283           
21 18.10.20 220 (ЮЗ) 10 км    ясно 
+13.7 +6.7 63 +14  1015.4  744  284           
00 19.10.20 350 (С) 10 км    ясно 
+13.4 +7.3 67 +12  1015.5  0.1  744  285           
03 19.10.20 030 (СВ) 10 км    8/0 средняя 
[Ac trans]
+13.9 +8.8 71 +14  1016.1  0.6  745  284  +13        сухая 
06 19.10.20 320 (СЗ) 20000 м    5/0 средняя, верхняя 
[Ac trans|Ci fib]
+16.1 +9.7 66 +17  1017  745  282           
09 19.10.20 020 (С) 20000 м    5/0 средняя, верхняя 
[Ac trans|Ci fib]
+20.8 +10.1 50 +22  1015.5  -1.1  745  277           
12 19.10.20 050 (СВ) 20000 м    8/6 600 м кучево-дожд., средняя, верхняя 
[Cb cap|Ac trans|Ci fib]
+21.7 +8.6 43 +22  1014.2  -1.2  744  276           
15 19.10.20 030 (СВ) 5{10}  10 км    10/8 600 м кучево-дожд., средняя 
[Cb cap|Ac und]
+17.4 +8.1 54 +17  1015.2  0.7  744  281    +22.3       
18 19.10.20 060 (СВ) 10 км  слаб. ливневой дождь  10/10 600 м кучево-дожд. 
[Cb cap]
+12.6 +9 79 +12  1015.9  0.3  744  285           
21 19.10.20 360 (С) 8-12{12}  10 км  слаб. ливневой дождь  10/8 600 м кучево-дожд., средняя 
[Cb cap|Ac und]
+10.4 +8.2 86 +8  1018.1  1.9  746  288           
00 20.10.20 020 (С) 7-10{12}  10 км  {ливн. осадки}  10/8 600 м кучево-дожд., средняя 
[Cb cap|Ac und]
+9.2 +6.4 83 +7  1020.1  1.9  747  290           
03 20.10.20 320 (СЗ) 10 км    10/10 600 м 
[Sc]
+8.5 +5.9 84 +8  1022.8  2.5  749  292  +8.5      влажная 
06 20.10.20 260 (З) 20000 м    9/0 средняя 
[Sc diur, vesp|Ac trans]
+9.2 +6.8 85 +9  1024.5  1.8  751  291  +7.8         
09 20.10.20 260 (З) 20000 м  {ливн. осадки}  9/9 300 м кучево-дожд. 
[Cb cap]
+11.6 +6.9 73 +11  1024.1  -0.2  750  289           
12 20.10.20 270 (З) 20000 м  {ливн. осадки}  8/5 600 м средняя 
[Sc diur, vesp|Ac trans]
+12.9 +7.2 68 +12  1023.2  -0.2  750  287           
15 20.10.20 310 (СЗ) 10 км    6/4 600 м средняя 
[Sc|Ac trans]
+10.9 +3.7 61 +10  1023.9  0.4  750  290    +13.4  0.0     
18 20.10.20 310 (СЗ) 10 км    3/0 средняя 
[Ac trans]
+8.7 +2.6 65 +8  1024.8  0.7  751  293           
21 20.10.20 310 (СЗ) 10 км    3/0 средняя 
[Ac trans]
+7.3 +0.6 62 +6  1025.4  0.5  751  295           
00 21.10.20 280 (З) 10 км    ясно 
+3.7 -0.9 72 +2  1026.3  0.5  751  299           
03 21.10.20 280 (З) 10 км    ясно 
+4.1 -1.2 68 +2  1026.7  0.5  752  299  +3.3        влажная 
06 21.10.20 310 (СЗ) 20000 м    ясно 
+7.1 +0.8 64 +6  1028.7  0.5  753  296           
09 21.10.20 300 (СЗ) 20000 м    3/3 1000 м средняя, верхняя 
[Cu med, cong|Ac trans|Ci fib]
+11 -1.9 41 +10  1028.4  753  292           
12 21.10.20 300 (СЗ) 20000 м    5/0 средняя, верхняя 
[Ac trans|Ci fib]
+11.5 -3.7 34 +10  1027.6  -0.8  753  291           
15 21.10.20 280 (З) 10 км    8/0 средняя, верхняя 
[Ac trans|Ci fib]
+8.5 -1.8 48 +8  1028.1  0.2  753  294    +12       
Время (UTC), дата Ветер
(°,м/с) 
Видим.   Явления Облачность Т
(°С)
Тd
(°С)
f(%) Тe
(°С)
Pmin
(гПа)
dP
(гПа)
Po
(мм)
O2
(г/м3)
Тmin Tmax R s Состояние
почвы

Для получения пояснительной информации подведите курсор к названию столбца.

ПОГОДА в Элисте - архив

Всё, что Вы хотите узнать о погоде в Элисте - удобно и подробно!

Выберите нужную дату (начиная с 1 января 2019* года) и нажмите кнопку "Найти".
Будут отображены архивные сводки погоды по пункту Элиста, начиная с указанной даты.


Отображать данные в формате CSV (для использования в таблицах Excel)


Внимание! Наш архив погоды предназначен исключительно для личного некоммерческого использования в познавательных целях. Если Вам необходимы официальные справки о состоянии погоды (для производственных, юридических, коммерческих и т.п. целей), обращайтесь в органы Росгидромета.

*Примечание: данная дата относится к архиву по метеостанциям СССР (Россия, СНГ, Балтия).
Архив по метеостанциям Зарубежной Европы и Азии (кроме Китая) хранится 10 дней, по другим регионам земного шара (Китай, Африка, Америка, Австралия, Океания) - 1 день.

Элиста - район местоположения метеостанции


Название, широта, долгота, высота метеостанции:
Элиста 46.4°ш. 44.3°д. 155 м над ур. моря [Российская Федерация]

Дополнительная информация

В oтличие oт бoльшинства пoгoдных сайтoв мы публикуем пoдрoбную метеoинфoрмацию в детальнoм прoфессиoнальнoм фoрмате.

Характеристики температуры и влажнoсти вoздуха измеряются на высoте 2 м в тени вдали oт зданий и деревьев.
Скoрoсть ветра измеряется на высoте 10 м (на урoвне рoста челoвека скoрoсть ветра ниже в 1.5-2 раза). Если метеoстанция нахoдится в гoрoде или в лесу, тo скoрoсть ветра занижена на 2-4 м/с пo сравнению с oткрытым местoм. Скoрoсть ветра над акватoриями крупных рек и oзёр, а также на вершинах хoлмoв на 2-5 м/с выше, чем в oбычных услoвиях.
Атмoсфернoе давление в разных тoчках местнoсти мoжет значительнo oтличаться oт давления на метеoстанции, в зависимoсти oт услoвий рельефа (при пoдъёме на 10 м давление пoнижается примернo на 1 мм рт.ст.).